C/2022 P3 ( ZTF )

Japanese version
Home page
Updated on January 22, 2023

---------------------------------------------------------------------

* Profile

Discovery Date August 2, 2022
Magnitude 19.4 mag
Discoverer Zwicky Transient Facility (ZTF) Collaboration

* Pictures

* Orbital Elements

Epoch 2023 Feb. 25.0 TT = JDT 2460000.5
T 2022 July 27.35568 TT                                 Rudenko
q   2.5613843            (2000.0)            P               Q
z  +0.0040923      Peri.    0.09785     +0.30432037     -0.48360326
 +/-0.0000002      Node    72.23306     +0.87337915     -0.20226925
e   0.9895181      Incl.   59.51737     +0.38026040     +0.85159558
>From 314 observations 2022 Aug. 2-2023 Jan. 15, mean residual 0".5.

* Magnitudes Graph

        m1 = 11.5 + 5 log d + 10.0 log r

---------------------------------------------------------------------

The orbital elements are published on M.P.E.C. 2023-B57.
The magnitudes graphs are made with Comet for Windows.

---------------------------------------------------------------------

Copyright(C) Seiichi Yoshida (comet@aerith.net). All rights reserved.